Tracking 28126 objects as of 2-Oct-2023
HD Live streaming from Space Station
objects crossing your sky now

STARLINK-30387

Track STARLINK-30387 now!
10-day predictions
STARLINK-30387 is classified as:


NORAD ID: 57788
Int'l Code: 2023-134T
Perigee: 412.5 km
Apogee: 414.5 km
Inclination: 43.0 °
Period: 92.7 minutes
Semi major axis: 6784 km
RCS: Unknown
Launch date: September 4, 2023
Source: United States (US)
Launch site: AIR FORCE EASTERN TEST RANGE (AFETR)
Your satellite tracking list
Your tracking list is empty




NASA's NSSDC Master Catalog

Two Line Element Set (TLE):
1 57788U 23134T   23274.58334491 -.01644841  00000-0 -28071-1 0  9992
2 57788  43.0000 355.0802 0001461 284.0818  75.4701 15.53545475  5610
Source of the keplerian elements: AFSPC